Find Starlink 32004

NORAD ID: 60151 Int'l Des: 2024-120 Owner: SPXS Country: US Constellation: starlink operational
LEOCIRCULAR

实时位置

正在加载3D地球...

关于 Starlink 32004

正在加载描述...

即将过境

Passes for default location (London). Set your location on the main map for personalized predictions.

高度历史

Loading altitude history...

两行轨道根数

1 60151U 24120S 26126.92427799 -.00000051 00000-0 10402-4 0 9996
2 60151 53.1616 49.3248 0001460 49.7735 310.3393 15.30195062105373
Epoch: May 6, 2026 • Age: 9 hours

当前状态

高度 481.4 km
速度 7.62 km/s
星下点 -22.38°S, 52.53°E
发射日期 Jun 27, 2024
运行时间 1.8 years
类型 internet

技术详情

分类 Payload
质量 730.00 kg
干质量 700.00 kg
总质量 730.00 kg
长度 0.30 m
直径 4.10 m
跨度 29.00 m
形状 Box + pan
制造商 SPXS
平台类型 Starlink V2M
阶段状态 In Orbit
所有者/国家 SPXS/US

Most Searched